Year,Month,Day,Hour,Minute,Value (Times are PST for temperature in C)
2008,07,18,00,00,13.10
2008,07,18,00,01,13.10
2008,07,18,00,02,13.10
2008,07,18,00,03,13.10
2008,07,18,00,04,13.10
2008,07,18,00,05,13.00
2008,07,18,00,06,13.00
2008,07,18,00,07,13.00
2008,07,18,00,08,12.90
2008,07,18,00,09,12.90
2008,07,18,00,10,12.90
2008,07,18,00,11,12.90
2008,07,18,00,12,12.90
2008,07,18,00,13,12.90
2008,07,18,00,14,12.90
2008,07,18,00,15,12.90
2008,07,18,00,16,12.90
2008,07,18,00,17,12.80
2008,07,18,00,18,12.80
2008,07,18,00,19,12.80
2008,07,18,00,20,12.80
2008,07,18,00,21,12.80
2008,07,18,00,22,12.70
2008,07,18,00,23,12.70
2008,07,18,00,24,12.70
2008,07,18,00,25,12.70
2008,07,18,00,26,12.70
2008,07,18,00,27,12.60
2008,07,18,00,28,12.60
2008,07,18,00,29,12.60
2008,07,18,00,30,12.60
2008,07,18,00,31,12.60
2008,07,18,00,32,12.50
2008,07,18,00,33,12.50
2008,07,18,00,34,12.50
2008,07,18,00,35,12.50
2008,07,18,00,36,12.40
2008,07,18,00,37,12.40
2008,07,18,00,38,12.40
2008,07,18,00,39,12.40
2008,07,18,00,40,12.40
2008,07,18,00,41,12.40
2008,07,18,00,42,12.40
2008,07,18,00,43,12.40
2008,07,18,00,44,12.40
2008,07,18,00,45,12.40
2008,07,18,00,46,12.30
2008,07,18,00,47,12.30
2008,07,18,00,48,12.30
2008,07,18,00,49,12.30
2008,07,18,00,50,12.30
2008,07,18,00,51,12.30
2008,07,18,00,52,12.30
2008,07,18,00,53,12.30
2008,07,18,00,54,12.30
2008,07,18,00,55,12.20
2008,07,18,00,56,12.20
2008,07,18,00,57,12.20
2008,07,18,00,58,12.20
2008,07,18,00,59,12.10
2008,07,18,01,00,12.10
2008,07,18,01,01,12.00
2008,07,18,01,02,12.00
2008,07,18,01,03,11.90
2008,07,18,01,04,11.90
2008,07,18,01,05,11.90
2008,07,18,01,06,11.80
2008,07,18,01,07,11.80
2008,07,18,01,08,11.70
2008,07,18,01,09,11.70
2008,07,18,01,10,11.70
2008,07,18,01,11,11.60
2008,07,18,01,12,11.60
2008,07,18,01,13,11.60
2008,07,18,01,14,11.60
2008,07,18,01,15,11.60
2008,07,18,01,16,11.50
2008,07,18,01,17,11.50
2008,07,18,01,18,11.50
2008,07,18,01,19,11.50
2008,07,18,01,20,11.50
2008,07,18,01,21,11.40
2008,07,18,01,22,11.40
2008,07,18,01,23,11.40
2008,07,18,01,24,11.40
2008,07,18,01,25,11.40
2008,07,18,01,26,11.40
2008,07,18,01,27,11.40
2008,07,18,01,28,11.30
2008,07,18,01,29,11.30
2008,07,18,01,30,11.30
2008,07,18,01,31,11.30
2008,07,18,01,32,11.30
2008,07,18,01,33,11.30
2008,07,18,01,34,11.20
2008,07,18,01,35,11.20
2008,07,18,01,36,11.20
2008,07,18,01,37,11.20
2008,07,18,01,38,11.20
2008,07,18,01,39,11.20
2008,07,18,01,40,11.20
2008,07,18,01,41,11.20
2008,07,18,01,42,11.10
2008,07,18,01,43,11.10
2008,07,18,01,44,11.10
2008,07,18,01,45,11.10
2008,07,18,01,46,11.10
2008,07,18,01,47,11.00
2008,07,18,01,48,11.00
2008,07,18,01,49,11.00
2008,07,18,01,50,10.90
2008,07,18,01,51,10.90
2008,07,18,01,52,10.90
2008,07,18,01,53,10.80
2008,07,18,01,54,10.80
2008,07,18,01,55,10.80
2008,07,18,01,56,10.80
2008,07,18,01,57,10.70
2008,07,18,01,58,10.70
2008,07,18,01,59,10.70
2008,07,18,02,00,10.70
2008,07,18,02,01,10.70
2008,07,18,02,02,10.70
2008,07,18,02,03,10.60
2008,07,18,02,04,10.60
2008,07,18,02,05,10.60
2008,07,18,02,06,10.60
2008,07,18,02,07,10.70
2008,07,18,02,08,10.70
2008,07,18,02,09,10.70
2008,07,18,02,10,10.70
2008,07,18,02,11,10.70
2008,07,18,02,12,10.70
2008,07,18,02,13,10.70
2008,07,18,02,14,10.70
2008,07,18,02,15,10.70
2008,07,18,02,16,10.80
2008,07,18,02,17,10.80
2008,07,18,02,18,10.80
2008,07,18,02,19,10.80
2008,07,18,02,20,10.70
2008,07,18,02,21,10.70
2008,07,18,02,22,10.60
2008,07,18,02,23,10.60
2008,07,18,02,24,10.50
2008,07,18,02,25,10.40
2008,07,18,02,26,10.40
2008,07,18,02,27,10.40
2008,07,18,02,28,10.40
2008,07,18,02,29,10.40
2008,07,18,02,30,10.30
2008,07,18,02,31,10.30
2008,07,18,02,32,10.30
2008,07,18,02,33,10.30
2008,07,18,02,34,10.30
2008,07,18,02,35,10.30
2008,07,18,02,36,10.30
2008,07,18,02,37,10.30
2008,07,18,02,38,10.30
2008,07,18,02,39,10.20
2008,07,18,02,40,10.20
2008,07,18,02,41,10.20
2008,07,18,02,42,10.20
2008,07,18,02,43,10.20
2008,07,18,02,44,10.10
2008,07,18,02,45,10.10
2008,07,18,02,46,10.10
2008,07,18,02,47,10.10
2008,07,18,02,48,10.10
2008,07,18,02,49,10.10
2008,07,18,02,50,10.10
2008,07,18,02,51,10.10
2008,07,18,02,52,10.10
2008,07,18,02,53,10.10
2008,07,18,02,54,10.00
2008,07,18,02,55,10.00
2008,07,18,02,56,10.00
2008,07,18,02,57,10.00
2008,07,18,02,58,10.00
2008,07,18,02,59,10.00
2008,07,18,03,00,10.00
2008,07,18,03,01,10.00
2008,07,18,03,02,9.90
2008,07,18,03,03,9.90
2008,07,18,03,04,9.90
2008,07,18,03,05,9.90
2008,07,18,03,06,9.90
2008,07,18,03,07,9.90
2008,07,18,03,08,10.00
2008,07,18,03,09,10.00
2008,07,18,03,10,10.00
2008,07,18,03,11,10.00
2008,07,18,03,12,10.00
2008,07,18,03,13,10.00
2008,07,18,03,14,10.00
2008,07,18,03,15,9.90
2008,07,18,03,16,9.90
2008,07,18,03,17,9.90
2008,07,18,03,18,9.90
2008,07,18,03,19,9.80
2008,07,18,03,20,9.80
2008,07,18,03,21,9.80
2008,07,18,03,22,9.80
2008,07,18,03,23,9.80
2008,07,18,03,24,9.70
2008,07,18,03,25,9.70
2008,07,18,03,26,9.70
2008,07,18,03,27,9.70
2008,07,18,03,28,9.60
2008,07,18,03,29,9.60
2008,07,18,03,30,9.60
2008,07,18,03,31,9.60
2008,07,18,03,32,9.60
2008,07,18,03,33,9.60
2008,07,18,03,34,9.60
2008,07,18,03,35,9.60
2008,07,18,03,36,9.60
2008,07,18,03,37,9.60
2008,07,18,03,38,9.60
2008,07,18,03,39,9.60
2008,07,18,03,40,9.60
2008,07,18,03,41,9.60
2008,07,18,03,42,9.50
2008,07,18,03,43,9.50
2008,07,18,03,44,9.50
2008,07,18,03,45,9.50
2008,07,18,03,46,9.50
2008,07,18,03,47,9.50
2008,07,18,03,48,9.50
2008,07,18,03,49,9.50
2008,07,18,03,50,9.40
2008,07,18,03,51,9.40
2008,07,18,03,52,9.40
2008,07,18,03,53,9.40
2008,07,18,03,54,9.40
2008,07,18,03,55,9.40
2008,07,18,03,56,9.40
2008,07,18,03,57,9.40
2008,07,18,03,58,9.40
2008,07,18,03,59,9.40
2008,07,18,04,00,9.40
2008,07,18,04,01,9.40
2008,07,18,04,02,9.40
2008,07,18,04,03,9.40
2008,07,18,04,04,9.40
2008,07,18,04,05,9.40
2008,07,18,04,06,9.40
2008,07,18,04,07,9.40
2008,07,18,04,08,9.40
2008,07,18,04,09,9.40
2008,07,18,04,10,9.40
2008,07,18,04,11,9.40
2008,07,18,04,12,9.40
2008,07,18,04,13,9.40
2008,07,18,04,14,9.40
2008,07,18,04,15,9.40
2008,07,18,04,16,9.30
2008,07,18,04,17,9.30
2008,07,18,04,18,9.30
2008,07,18,04,19,9.30
2008,07,18,04,20,9.30
2008,07,18,04,21,9.30
2008,07,18,04,22,9.20
2008,07,18,04,23,9.20
2008,07,18,04,24,9.20
2008,07,18,04,25,9.20
2008,07,18,04,26,9.10
2008,07,18,04,27,9.10
2008,07,18,04,28,9.10
2008,07,18,04,29,9.10
2008,07,18,04,30,9.00
2008,07,18,04,31,9.00
2008,07,18,04,32,8.90
2008,07,18,04,33,8.90
2008,07,18,04,34,8.90
2008,07,18,04,35,8.90
2008,07,18,04,36,8.90
2008,07,18,04,37,8.90
2008,07,18,04,38,8.90
2008,07,18,04,39,8.80
2008,07,18,04,40,8.80
2008,07,18,04,41,8.80
2008,07,18,04,42,8.80
2008,07,18,04,43,8.80
2008,07,18,04,44,8.80
2008,07,18,04,45,8.80
2008,07,18,04,46,8.80
2008,07,18,04,47,8.80
2008,07,18,04,48,8.80
2008,07,18,04,49,8.80
2008,07,18,04,50,8.80
2008,07,18,04,51,8.80
2008,07,18,04,52,8.80
2008,07,18,04,53,8.80
2008,07,18,04,54,8.80
2008,07,18,04,55,8.90
2008,07,18,04,56,8.90
2008,07,18,04,57,8.90
2008,07,18,04,58,8.90
2008,07,18,04,59,8.90
2008,07,18,05,00,8.90
2008,07,18,05,01,8.90
2008,07,18,05,02,8.90
2008,07,18,05,03,8.90
2008,07,18,05,04,8.90
2008,07,18,05,05,8.90
2008,07,18,05,06,8.90
2008,07,18,05,07,8.90
2008,07,18,05,08,8.90
2008,07,18,05,09,8.90
2008,07,18,05,10,8.90
2008,07,18,05,11,8.90
2008,07,18,05,12,8.90
2008,07,18,05,13,8.90
2008,07,18,05,14,8.90
2008,07,18,05,15,8.90
2008,07,18,05,16,8.90
2008,07,18,05,17,8.90
2008,07,18,05,18,8.80
2008,07,18,05,19,8.80
2008,07,18,05,20,8.80
2008,07,18,05,21,8.80
2008,07,18,05,22,8.90
2008,07,18,05,23,8.90
2008,07,18,05,24,8.90
2008,07,18,05,25,8.90
2008,07,18,05,26,8.90
2008,07,18,05,27,8.90
2008,07,18,05,28,8.90
2008,07,18,05,29,8.90
2008,07,18,05,30,8.90
2008,07,18,05,31,8.90
2008,07,18,05,32,8.90
2008,07,18,05,33,8.90
2008,07,18,05,34,8.90
2008,07,18,05,35,8.90
2008,07,18,05,36,8.90
2008,07,18,05,37,8.90
2008,07,18,05,38,8.90
2008,07,18,05,39,8.90
2008,07,18,05,40,8.90
2008,07,18,05,41,8.90
2008,07,18,05,42,8.90
2008,07,18,05,43,8.90
2008,07,18,05,44,8.90
2008,07,18,05,45,8.90
2008,07,18,05,46,8.90
2008,07,18,05,47,8.90
2008,07,18,05,48,8.90
2008,07,18,05,49,8.90
2008,07,18,05,50,8.90
2008,07,18,05,51,8.90
2008,07,18,05,52,8.80
2008,07,18,05,53,8.80
2008,07,18,05,54,8.80
2008,07,18,05,55,8.80
2008,07,18,05,56,8.70
2008,07,18,05,57,8.70
2008,07,18,05,58,8.70
2008,07,18,05,59,8.70
2008,07,18,06,00,8.70
2008,07,18,06,01,8.70
2008,07,18,06,02,8.70
2008,07,18,06,03,8.70
2008,07,18,06,04,8.70
2008,07,18,06,05,8.70
2008,07,18,06,06,8.70
2008,07,18,06,07,8.70
2008,07,18,06,08,8.70
2008,07,18,06,09,8.70
2008,07,18,06,10,8.80
2008,07,18,06,11,8.80
2008,07,18,06,12,8.80
2008,07,18,06,13,8.80
2008,07,18,06,14,8.80
2008,07,18,06,15,8.80
2008,07,18,06,16,8.80
2008,07,18,06,17,8.80
2008,07,18,06,18,8.80
2008,07,18,06,19,8.80
2008,07,18,06,20,8.80
2008,07,18,06,21,8.80
2008,07,18,06,22,8.80
2008,07,18,06,23,8.80
2008,07,18,06,24,8.80
2008,07,18,06,25,8.80
2008,07,18,06,26,8.80
2008,07,18,06,27,8.90
2008,07,18,06,28,8.90
2008,07,18,06,29,9.00
2008,07,18,06,30,9.10
2008,07,18,06,31,9.10
2008,07,18,06,32,9.20
2008,07,18,06,33,9.30
2008,07,18,06,34,9.30
2008,07,18,06,35,9.30
2008,07,18,06,36,9.40
2008,07,18,06,37,9.40
2008,07,18,06,38,9.50
2008,07,18,06,39,9.60
2008,07,18,06,40,9.60
2008,07,18,06,41,9.60
2008,07,18,06,42,9.70
2008,07,18,06,43,9.70
2008,07,18,06,44,9.80
2008,07,18,06,45,9.80
2008,07,18,06,46,9.90
2008,07,18,06,47,9.90
2008,07,18,06,48,10.00
2008,07,18,06,49,10.00
2008,07,18,06,50,10.10
2008,07,18,06,51,10.20
2008,07,18,06,52,10.30
2008,07,18,06,53,10.40
2008,07,18,06,54,10.50
2008,07,18,06,55,10.60
2008,07,18,06,56,10.70
2008,07,18,06,57,10.80
2008,07,18,06,58,10.90
2008,07,18,06,59,11.00
2008,07,18,07,00,11.10
2008,07,18,07,01,11.20
2008,07,18,07,02,11.30
2008,07,18,07,03,11.30
2008,07,18,07,04,11.40
2008,07,18,07,05,11.40
2008,07,18,07,06,11.40
2008,07,18,07,07,11.40
2008,07,18,07,08,11.50
2008,07,18,07,09,11.50
2008,07,18,07,10,11.50
2008,07,18,07,11,11.60
2008,07,18,07,12,11.60
2008,07,18,07,13,11.60
2008,07,18,07,14,11.70
2008,07,18,07,15,11.70
2008,07,18,07,16,11.70
2008,07,18,07,17,11.70
2008,07,18,07,18,11.70
2008,07,18,07,19,11.80
2008,07,18,07,20,11.80
2008,07,18,07,21,11.90
2008,07,18,07,22,11.90
2008,07,18,07,23,12.00
2008,07,18,07,24,12.00
2008,07,18,07,25,12.10
2008,07,18,07,26,12.10
2008,07,18,07,27,12.20
2008,07,18,07,28,12.20
2008,07,18,07,29,12.20
2008,07,18,07,30,12.30
2008,07,18,07,31,12.30
2008,07,18,07,32,12.40
2008,07,18,07,33,12.40
2008,07,18,07,34,12.50
2008,07,18,07,35,12.50
2008,07,18,07,36,12.60
2008,07,18,07,37,12.60
2008,07,18,07,38,12.70
2008,07,18,07,39,12.80
2008,07,18,07,40,12.80
2008,07,18,07,41,12.90
2008,07,18,07,42,12.90
2008,07,18,07,43,13.00
2008,07,18,07,44,13.10
2008,07,18,07,45,13.10
2008,07,18,07,46,13.20
2008,07,18,07,47,13.30
2008,07,18,07,48,13.40
2008,07,18,07,49,13.50
2008,07,18,07,50,13.60
2008,07,18,07,51,13.70
2008,07,18,07,52,13.80
2008,07,18,07,53,13.80
2008,07,18,07,54,13.80
2008,07,18,07,55,13.90
2008,07,18,07,56,13.90
2008,07,18,07,57,13.90
2008,07,18,07,58,13.90
2008,07,18,07,59,14.00
2008,07,18,08,00,14.00
2008,07,18,08,01,14.00
2008,07,18,08,02,14.00
2008,07,18,08,03,14.10
2008,07,18,08,04,14.10
2008,07,18,08,05,14.20
2008,07,18,08,06,14.30
2008,07,18,08,07,14.40
2008,07,18,08,08,14.60
2008,07,18,08,09,14.80
2008,07,18,08,10,15.00
2008,07,18,08,11,15.00
2008,07,18,08,12,15.20
2008,07,18,08,13,15.40
2008,07,18,08,14,15.60
2008,07,18,08,15,15.70
2008,07,18,08,16,15.80
2008,07,18,08,17,15.90
2008,07,18,08,18,16.00
2008,07,18,08,19,16.10
2008,07,18,08,20,16.10
2008,07,18,08,21,16.20
2008,07,18,08,22,16.30
2008,07,18,08,23,16.30
2008,07,18,08,24,16.30
2008,07,18,08,25,16.30
2008,07,18,08,26,16.40
2008,07,18,08,27,16.40
2008,07,18,08,28,16.40
2008,07,18,08,29,16.50
2008,07,18,08,30,16.60
2008,07,18,08,31,16.70
2008,07,18,08,32,16.80
2008,07,18,08,33,16.80
2008,07,18,08,34,16.90
2008,07,18,08,35,16.90
2008,07,18,08,36,16.90
2008,07,18,08,37,16.90
2008,07,18,08,38,16.90
2008,07,18,08,39,17.00
2008,07,18,08,40,17.00
2008,07,18,08,41,17.10
2008,07,18,08,42,17.10
2008,07,18,08,43,17.10
2008,07,18,08,44,17.10
2008,07,18,08,45,17.20
2008,07,18,08,46,17.10
2008,07,18,08,47,17.00
2008,07,18,08,48,17.10
2008,07,18,08,49,17.00
2008,07,18,08,50,17.00
2008,07,18,08,51,17.00
2008,07,18,08,52,17.00
2008,07,18,08,53,16.90
2008,07,18,08,54,16.90
2008,07,18,08,55,16.70
2008,07,18,08,56,16.60
2008,07,18,08,57,16.70
2008,07,18,08,58,16.60
2008,07,18,08,59,16.70
2008,07,18,09,00,16.70
2008,07,18,09,01,16.80
2008,07,18,09,02,16.90
2008,07,18,09,03,17.00
2008,07,18,09,04,17.00
2008,07,18,09,05,16.90
2008,07,18,09,06,16.80
2008,07,18,09,07,16.80
2008,07,18,09,08,16.80
2008,07,18,09,09,16.70
2008,07,18,09,10,16.60
2008,07,18,09,11,16.60
2008,07,18,09,12,16.60
2008,07,18,09,13,16.70
2008,07,18,09,14,16.60
2008,07,18,09,15,16.60
2008,07,18,09,16,16.50
2008,07,18,09,17,16.40
2008,07,18,09,18,16.40
2008,07,18,09,19,16.30
2008,07,18,09,20,16.30
2008,07,18,09,21,16.30
2008,07,18,09,22,16.40
2008,07,18,09,23,16.50
2008,07,18,09,24,16.50
2008,07,18,09,25,16.50
2008,07,18,09,26,16.40
2008,07,18,09,27,16.40
2008,07,18,09,28,16.40
2008,07,18,09,29,16.50
2008,07,18,09,30,16.60
2008,07,18,09,31,16.60
2008,07,18,09,32,16.70
2008,07,18,09,33,16.70
2008,07,18,09,34,16.70
2008,07,18,09,35,16.70
2008,07,18,09,36,16.70
2008,07,18,09,37,16.70
2008,07,18,09,38,16.70
2008,07,18,09,39,16.70
2008,07,18,09,40,16.80
2008,07,18,09,41,16.80
2008,07,18,09,42,16.90
2008,07,18,09,43,16.90
2008,07,18,09,44,16.90
2008,07,18,09,45,17.00
2008,07,18,09,46,17.10
2008,07,18,09,47,17.20
2008,07,18,09,48,17.20
2008,07,18,09,49,17.20
2008,07,18,09,50,17.00
2008,07,18,09,51,16.90
2008,07,18,09,52,16.80
2008,07,18,09,53,16.80
2008,07,18,09,54,16.70
2008,07,18,09,55,16.70
2008,07,18,09,56,16.70
2008,07,18,09,57,16.60
2008,07,18,09,58,16.60
2008,07,18,09,59,16.50
2008,07,18,10,00,16.50
2008,07,18,10,01,16.60
2008,07,18,10,02,16.40
2008,07,18,10,03,16.30
2008,07,18,10,04,16.30
2008,07,18,10,05,16.40
2008,07,18,10,06,16.30
2008,07,18,10,07,16.30
2008,07,18,10,08,16.20
2008,07,18,10,09,16.20
2008,07,18,10,10,16.30
2008,07,18,10,11,16.20
2008,07,18,10,12,16.20
2008,07,18,10,13,16.20
2008,07,18,10,14,16.20
2008,07,18,10,15,16.20
2008,07,18,10,16,16.30
2008,07,18,10,17,16.20
2008,07,18,10,18,16.20
2008,07,18,10,19,16.20
2008,07,18,10,20,16.30
2008,07,18,10,21,16.30
2008,07,18,10,22,16.30
2008,07,18,10,23,16.20
2008,07,18,10,24,16.20
2008,07,18,10,25,16.30
2008,07,18,10,26,16.40
2008,07,18,10,27,16.40
2008,07,18,10,28,16.40
2008,07,18,10,29,16.40
2008,07,18,10,30,16.30
2008,07,18,10,31,16.30
2008,07,18,10,32,16.20
2008,07,18,10,33,16.00
2008,07,18,10,34,15.90
2008,07,18,10,35,15.80
2008,07,18,10,36,15.80
2008,07,18,10,37,15.90
2008,07,18,10,38,15.90
2008,07,18,10,39,15.80
2008,07,18,10,40,15.80
2008,07,18,10,41,15.80
2008,07,18,10,42,15.80
2008,07,18,10,43,15.70
2008,07,18,10,44,15.60
2008,07,18,10,45,15.60
2008,07,18,10,46,15.60
2008,07,18,10,47,15.70
2008,07,18,10,48,15.80
2008,07,18,10,49,15.90
2008,07,18,10,50,15.80
2008,07,18,10,51,15.80
2008,07,18,10,52,15.80
2008,07,18,10,53,15.70
2008,07,18,10,54,15.80
2008,07,18,10,55,16.00
2008,07,18,10,56,16.10
2008,07,18,10,57,16.30
2008,07,18,10,58,16.40
2008,07,18,10,59,16.50
2008,07,18,11,00,16.40
2008,07,18,11,01,16.30
2008,07,18,11,02,16.20
2008,07,18,11,03,16.00
2008,07,18,11,04,16.00
2008,07,18,11,05,16.10
2008,07,18,11,06,16.10
2008,07,18,11,07,16.10
2008,07,18,11,08,16.00
2008,07,18,11,09,16.00
2008,07,18,11,10,16.00
2008,07,18,11,11,16.00
2008,07,18,11,12,16.00
2008,07,18,11,13,16.00
2008,07,18,11,14,16.00
2008,07,18,11,15,16.10
2008,07,18,11,16,16.10
2008,07,18,11,17,16.10
2008,07,18,11,18,16.10
2008,07,18,11,19,16.00
2008,07,18,11,20,15.70
2008,07,18,11,21,15.70
2008,07,18,11,22,15.80
2008,07,18,11,23,15.90
2008,07,18,11,24,16.00
2008,07,18,11,25,16.10
2008,07,18,11,26,16.10
2008,07,18,11,27,16.00
2008,07,18,11,28,16.00
2008,07,18,11,29,16.00
2008,07,18,11,30,16.10
2008,07,18,11,31,16.10
2008,07,18,11,32,15.90
2008,07,18,11,33,16.00
2008,07,18,11,34,16.00
2008,07,18,11,35,16.10
2008,07,18,11,36,16.10
2008,07,18,11,37,16.10
2008,07,18,11,38,16.10
2008,07,18,11,39,16.00
2008,07,18,11,40,16.00
2008,07,18,11,41,16.10
2008,07,18,11,42,16.10
2008,07,18,11,43,16.20
2008,07,18,11,44,16.20
2008,07,18,11,45,16.20
2008,07,18,11,46,16.20
2008,07,18,11,47,16.20
2008,07,18,11,48,16.10
2008,07,18,11,49,16.10
2008,07,18,11,50,16.00
2008,07,18,11,51,15.90
2008,07,18,11,52,15.80
2008,07,18,11,53,15.90
2008,07,18,11,54,16.00
2008,07,18,11,55,16.10
2008,07,18,11,56,16.20
2008,07,18,11,57,16.30
2008,07,18,11,58,16.30
2008,07,18,11,59,16.20
2008,07,18,12,00,16.10
2008,07,18,12,01,16.00
2008,07,18,12,02,15.90
2008,07,18,12,03,15.80
2008,07,18,12,04,15.80
2008,07,18,12,05,15.80
2008,07,18,12,06,15.90
2008,07,18,12,07,16.00
2008,07,18,12,08,16.20
2008,07,18,12,09,16.30
2008,07,18,12,10,16.40
2008,07,18,12,11,16.50
2008,07,18,12,12,16.50
2008,07,18,12,13,16.60
2008,07,18,12,14,16.70
2008,07,18,12,15,16.70
2008,07,18,12,16,16.90
2008,07,18,12,17,17.00
2008,07,18,12,18,17.00
2008,07,18,12,19,17.00
2008,07,18,12,20,16.90
2008,07,18,12,21,16.80
2008,07,18,12,22,16.80
2008,07,18,12,23,16.80
2008,07,18,12,24,16.80
2008,07,18,12,25,16.90
2008,07,18,12,26,17.00
2008,07,18,12,27,17.00
2008,07,18,12,28,17.00
2008,07,18,12,29,16.90
2008,07,18,12,30,16.90
2008,07,18,12,31,16.90
2008,07,18,12,32,16.80
2008,07,18,12,33,16.80
2008,07,18,12,34,17.00
2008,07,18,12,35,17.10
2008,07,18,12,36,17.20
2008,07,18,12,37,17.30
2008,07,18,12,38,17.40
2008,07,18,12,39,17.30
2008,07,18,12,40,17.40
2008,07,18,12,41,17.30
2008,07,18,12,42,17.30
2008,07,18,12,43,17.40
2008,07,18,12,44,17.50
2008,07,18,12,45,17.60
2008,07,18,12,46,17.70
2008,07,18,12,47,17.70
2008,07,18,12,48,17.60
2008,07,18,12,49,17.60
2008,07,18,12,50,17.60
2008,07,18,12,51,17.60
2008,07,18,12,52,17.50
2008,07,18,12,53,17.40
2008,07,18,12,54,17.30
2008,07,18,12,55,17.30
2008,07,18,12,56,17.40
2008,07,18,12,57,17.40
2008,07,18,12,58,17.30
2008,07,18,12,59,17.40
2008,07,18,13,00,17.50
2008,07,18,13,01,17.50
2008,07,18,13,02,17.70
2008,07,18,13,03,17.90
2008,07,18,13,04,17.90
2008,07,18,13,05,18.00
2008,07,18,13,06,17.90
2008,07,18,13,07,17.90
2008,07,18,13,08,17.90
2008,07,18,13,09,18.00
2008,07,18,13,10,18.20
2008,07,18,13,11,18.20
2008,07,18,13,12,18.40
2008,07,18,13,13,18.50
2008,07,18,13,14,18.50
2008,07,18,13,15,18.40
2008,07,18,13,16,18.20
2008,07,18,13,17,18.20
2008,07,18,13,18,18.20
2008,07,18,13,19,18.10
2008,07,18,13,20,18.20
2008,07,18,13,21,18.20
2008,07,18,13,22,18.10
2008,07,18,13,23,18.30
2008,07,18,13,24,18.40
2008,07,18,13,25,18.30
2008,07,18,13,26,18.40
2008,07,18,13,27,18.40
2008,07,18,13,28,18.40
2008,07,18,13,29,18.30
2008,07,18,13,30,18.30
2008,07,18,13,31,18.40
2008,07,18,13,32,18.40
2008,07,18,13,33,18.30
2008,07,18,13,34,18.30
2008,07,18,13,35,18.30
2008,07,18,13,36,18.30
2008,07,18,13,37,18.40
2008,07,18,13,38,18.50
2008,07,18,13,39,18.60
2008,07,18,13,40,18.80
2008,07,18,13,41,19.00
2008,07,18,13,42,19.10
2008,07,18,13,43,19.30
2008,07,18,13,44,19.30
2008,07,18,13,45,19.40
2008,07,18,13,46,19.40
2008,07,18,13,47,19.30
2008,07,18,13,48,19.30
2008,07,18,13,49,19.20
2008,07,18,13,50,19.20
2008,07,18,13,51,18.90
2008,07,18,13,52,18.80
2008,07,18,13,53,18.80
2008,07,18,13,54,18.90
2008,07,18,13,55,18.80
2008,07,18,13,56,18.80
2008,07,18,13,57,18.80
2008,07,18,13,58,18.90
2008,07,18,13,59,19.00
2008,07,18,14,00,19.20
2008,07,18,14,01,19.40
2008,07,18,14,02,19.50
2008,07,18,14,03,19.70
2008,07,18,14,04,19.50
2008,07,18,14,05,19.30
2008,07,18,14,06,19.30
2008,07,18,14,07,19.20
2008,07,18,14,08,19.30
2008,07,18,14,09,19.20
2008,07,18,14,10,19.00
2008,07,18,14,11,18.90
2008,07,18,14,12,18.90
2008,07,18,14,13,19.00
2008,07,18,14,14,19.10
2008,07,18,14,15,19.20
2008,07,18,14,16,19.20
2008,07,18,14,17,19.20
2008,07,18,14,18,19.20
2008,07,18,14,19,19.30
2008,07,18,14,20,19.40
2008,07,18,14,21,19.40
2008,07,18,14,22,19.30
2008,07,18,14,23,19.10
2008,07,18,14,24,19.10
2008,07,18,14,25,19.00
2008,07,18,14,26,18.90
2008,07,18,14,27,19.00
2008,07,18,14,28,19.10
2008,07,18,14,29,19.00
2008,07,18,14,30,19.00
2008,07,18,14,31,19.00
2008,07,18,14,32,18.80
2008,07,18,14,33,18.70
2008,07,18,14,34,18.70
2008,07,18,14,35,18.70
2008,07,18,14,36,18.80
2008,07,18,14,37,19.00
2008,07,18,14,38,19.00
2008,07,18,14,39,19.00
2008,07,18,14,40,18.90
2008,07,18,14,41,18.90
2008,07,18,14,42,18.80
2008,07,18,14,43,19.10
2008,07,18,14,44,19.00
2008,07,18,14,45,19.00
2008,07,18,14,46,19.00
2008,07,18,14,47,18.90
2008,07,18,14,48,19.00
2008,07,18,14,49,19.20
2008,07,18,14,50,19.20
2008,07,18,14,51,19.00
2008,07,18,14,52,19.00
2008,07,18,14,53,18.80
2008,07,18,14,54,18.70
2008,07,18,14,55,18.60
2008,07,18,14,56,18.60
2008,07,18,14,57,18.60
2008,07,18,14,58,18.70
2008,07,18,14,59,18.70
2008,07,18,15,00,18.70
2008,07,18,15,01,18.80
2008,07,18,15,02,18.70
2008,07,18,15,03,18.70
2008,07,18,15,04,18.60
2008,07,18,15,05,18.60
2008,07,18,15,06,18.70
2008,07,18,15,07,18.70
2008,07,18,15,08,18.70
2008,07,18,15,09,18.70
2008,07,18,15,10,18.60
2008,07,18,15,11,18.60
2008,07,18,15,12,18.60
2008,07,18,15,13,18.60
2008,07,18,15,14,18.70
2008,07,18,15,15,18.80
2008,07,18,15,16,18.80
2008,07,18,15,17,18.90
2008,07,18,15,18,18.90
2008,07,18,15,19,18.80
2008,07,18,15,20,18.80
2008,07,18,15,21,18.90
2008,07,18,15,22,19.00
2008,07,18,15,23,19.20
2008,07,18,15,24,19.20
2008,07,18,15,25,19.20
2008,07,18,15,26,19.20
2008,07,18,15,27,19.10
2008,07,18,15,28,18.90
2008,07,18,15,29,18.90
2008,07,18,15,30,19.10
2008,07,18,15,31,19.10
2008,07,18,15,32,19.10
2008,07,18,15,33,19.10
2008,07,18,15,34,19.10
2008,07,18,15,35,19.20
2008,07,18,15,36,19.20
2008,07,18,15,37,19.20
2008,07,18,15,38,19.20
2008,07,18,15,39,19.20
2008,07,18,15,40,19.20
2008,07,18,15,41,19.10
2008,07,18,15,42,19.20
2008,07,18,15,43,19.20
2008,07,18,15,44,19.20
2008,07,18,15,45,19.20
2008,07,18,15,46,19.10
2008,07,18,15,47,19.00
2008,07,18,15,48,19.00
2008,07,18,15,49,19.00
2008,07,18,15,50,19.00
2008,07,18,15,51,18.90
2008,07,18,15,52,18.90
2008,07,18,15,53,18.90
2008,07,18,15,54,18.90
2008,07,18,15,55,19.00
2008,07,18,15,56,19.00
2008,07,18,15,57,19.10
2008,07,18,15,58,19.10
2008,07,18,15,59,19.20
2008,07,18,16,00,19.30
2008,07,18,16,01,19.30
2008,07,18,16,02,19.30
2008,07,18,16,03,19.30
2008,07,18,16,04,19.30
2008,07,18,16,05,19.10
2008,07,18,16,06,19.10
2008,07,18,16,07,19.10
2008,07,18,16,08,19.10
2008,07,18,16,09,19.10
2008,07,18,16,10,19.00
2008,07,18,16,11,18.90
2008,07,18,16,12,18.80
2008,07,18,16,13,18.60
2008,07,18,16,14,18.50
2008,07,18,16,15,18.60
2008,07,18,16,16,18.70
2008,07,18,16,17,18.90
2008,07,18,16,18,19.00
2008,07,18,16,19,19.10
2008,07,18,16,20,19.20
2008,07,18,16,21,19.20
2008,07,18,16,22,19.20
2008,07,18,16,23,19.10
2008,07,18,16,24,19.10
2008,07,18,16,25,19.20
2008,07,18,16,26,19.30
2008,07,18,16,27,19.30
2008,07,18,16,28,19.20
2008,07,18,16,29,19.20
2008,07,18,16,30,19.20
2008,07,18,16,31,19.10
2008,07,18,16,32,19.30
2008,07,18,16,33,19.20
2008,07,18,16,34,19.00
2008,07,18,16,35,18.90
2008,07,18,16,36,18.80
2008,07,18,16,37,18.60
2008,07,18,16,38,18.60
2008,07,18,16,39,18.60
2008,07,18,16,40,18.40
2008,07,18,16,41,18.40
2008,07,18,16,42,18.40
2008,07,18,16,43,18.50
2008,07,18,16,44,18.60
2008,07,18,16,45,18.70
2008,07,18,16,46,18.80
2008,07,18,16,47,18.90
2008,07,18,16,48,18.90
2008,07,18,16,49,18.90
2008,07,18,16,50,18.70
2008,07,18,16,51,18.50
2008,07,18,16,52,18.40
2008,07,18,16,53,18.50
2008,07,18,16,54,18.50
2008,07,18,16,55,18.50
2008,07,18,16,56,18.60
2008,07,18,16,57,18.50
2008,07,18,16,58,18.50
2008,07,18,16,59,18.50
2008,07,18,17,00,18.50
2008,07,18,17,01,18.60
2008,07,18,17,02,18.50
2008,07,18,17,03,18.50
2008,07,18,17,04,18.50
2008,07,18,17,05,18.50
2008,07,18,17,06,18.50
2008,07,18,17,07,18.60
2008,07,18,17,08,18.60
2008,07,18,17,09,18.60
2008,07,18,17,10,18.60
2008,07,18,17,11,18.50
2008,07,18,17,12,18.40
2008,07,18,17,13,18.40
2008,07,18,17,14,18.30
2008,07,18,17,15,18.20
2008,07,18,17,16,18.20
2008,07,18,17,17,18.30
2008,07,18,17,18,18.50
2008,07,18,17,19,18.60
2008,07,18,17,20,18.80
2008,07,18,17,21,18.80
2008,07,18,17,22,18.90
2008,07,18,17,23,18.90
2008,07,18,17,24,18.80
2008,07,18,17,25,18.60
2008,07,18,17,26,18.40
2008,07,18,17,27,18.30
2008,07,18,17,28,18.30